Home   Weather   Brantford   Past weeks

Flag for Canada Past Weather in Brantford, Ontario, Canada — Yesterday and Last 2 Weeks

Now
72 °F

Partly sunny.


Feels Like: 69 °F
Forecast: N/A
Wind: 13 mph from Northeast

Location: Hamilton Airport

Current Time: Jul 23, 2017 at 4:44:22 pm

Latest Report: Jul 23, 2017 at 4:00 pm


Visibility: 8 mi

Pressure: 29.76 "Hg

Humidity: 88%

Dew Point: 68 °F

Location of BrantfordLocation

Past Weather in Brantford — Graph

°F

Brantford Temperature Yesterday

Maximum temperature yesterday: 72 °F (at 10:35 am)
Minimum temperature yesterday: 64 °F (at 11:00 pm)
Average temperature yesterday: 69 °F

High & Low Weather Summary for the Past Weeks

 TemperatureHumidityPressure
High84 °F (Jul 19, 3:00 pm)100% (Jul 10, 10:00 pm)30.12 "Hg (Jul 10, 10:00 pm)
Low52 °F (Jul 9, 5:00 am)41% (Jul 8, 5:00 pm)29.75 "Hg (Jul 23, 5:00 am)
Average69 °F84%29.96 "Hg
* Reported Jul 8 3:00 pm — Jul 23 3:00 pm, Brantford. Weather by CustomWeather, © 2017

Note: Actual official high and low records may vary slightly from our data, if they occured in-between our weather recording intervals... More about our weather records

Advertising

Brantford Weather History for the Previous 24 Hours

Scroll right to see more
 ConditionsComfort  
Time TempWeatherWind HumidityBarometerVisibility
3:00 pm
Sun, Jul 23
73 °FPartly sunny.14 mph83%29.78 "Hg8 mi
2:00 pm72 °FLow clouds.13 mph88%29.79 "Hg8 mi
1:00 pm75 °FPartly sunny.10 mph78%29.79 "Hg8 mi
12:00 pm73 °FBroken clouds.14 mph89%29.78 "Hg10 mi
11:00 am73 °FBroken clouds.12 mph83%29.78 "Hg10 mi
10:00 am70 °FBroken clouds.13 mph88%29.78 "Hg8 mi
9:00 am70 °FMore clouds than sun.13 mph94%29.78 "Hg8 mi
8:38 am70 °FFog.10 mph94%29.78 "Hg6 mi
8:00 am68 °FFog.10 mph100%29.78 "Hg3 mi
7:42 am68 °FFog.9 mph100%29.78 "Hg4 mi
7:00 am68 °FFog.9 mph94%29.77 "Hg6 mi
6:49 am68 °FPartly sunny.8 mph94%29.78 "Hg8 mi
6:00 am66 °FLight rain. Partly sunny.10 mph100%29.76 "Hg8 mi
5:00 am66 °FLight rain. Overcast.10 mph94%29.75 "Hg12 mi
4:00 am66 °FMostly cloudy.8 mph88%29.77 "Hg15 mi
3:00 am66 °FLight rain. Overcast.9 mph94%29.77 "Hg15 mi
2:07 am64 °FLight rain. Overcast.7 mph94%29.79 "Hg15 mi
1:38 am64 °FLight rain. Overcast.7 mph94%29.80 "Hg15 mi
1:00 am64 °FRain. Overcast.2 mph94%29.80 "Hg15 mi
12:00 am64 °FLight rain. Mostly cloudy.6 mph94%29.80 "Hg10 mi
11:00 pm
Sat, Jul 22
64 °FLight rain. Overcast.10 mph88%29.81 "Hg15 mi
10:00 pm66 °FLight rain. Overcast.10 mph88%29.82 "Hg15 mi
9:00 pm68 °FLight rain. Fog.5 mph83%29.82 "Hg5 mi
8:00 pm70 °FOvercast.8 mph73%29.80 "Hg15 mi
7:00 pm70 °FMostly cloudy.10 mph78%29.79 "Hg15 mi
6:41 pm70 °FBroken clouds.9 mph78%29.79 "Hg15 mi
6:00 pm70 °FLight rain. Overcast.10 mph73%29.78 "Hg15 mi
5:11 pm70 °FLight rain. Mostly cloudy.10 mph73%29.79 "Hg15 mi
4:00 pm70 °FOvercast.6 mph78%29.83 "Hg15 mi
Weather by CustomWeather, © 2017

See weather overviewHow to use our weather pages